Year,Month,Day,Hour,Minute,Value (Times are PST for temperature in C)
2008,06,24,00,00,14.40
2008,06,24,00,01,14.40
2008,06,24,00,02,14.40
2008,06,24,00,03,14.40
2008,06,24,00,04,14.40
2008,06,24,00,05,14.40
2008,06,24,00,06,14.40
2008,06,24,00,07,14.40
2008,06,24,00,08,14.40
2008,06,24,00,09,14.40
2008,06,24,00,10,14.40
2008,06,24,00,11,14.40
2008,06,24,00,12,14.40
2008,06,24,00,13,14.40
2008,06,24,00,14,14.40
2008,06,24,00,15,14.40
2008,06,24,00,16,14.40
2008,06,24,00,17,14.40
2008,06,24,00,18,14.40
2008,06,24,00,19,14.40
2008,06,24,00,20,14.40
2008,06,24,00,21,14.40
2008,06,24,00,22,14.40
2008,06,24,00,23,14.40
2008,06,24,00,24,14.40
2008,06,24,00,25,14.40
2008,06,24,00,26,14.40
2008,06,24,00,27,14.40
2008,06,24,00,28,14.40
2008,06,24,00,29,14.30
2008,06,24,00,30,14.30
2008,06,24,00,31,14.30
2008,06,24,00,32,14.30
2008,06,24,00,33,14.30
2008,06,24,00,34,14.30
2008,06,24,00,35,14.30
2008,06,24,00,36,14.30
2008,06,24,00,37,14.30
2008,06,24,00,38,14.40
2008,06,24,00,39,14.40
2008,06,24,00,40,14.40
2008,06,24,00,41,14.40
2008,06,24,00,42,14.40
2008,06,24,00,43,14.40
2008,06,24,00,44,14.40
2008,06,24,00,45,14.30
2008,06,24,00,46,14.30
2008,06,24,00,47,14.30
2008,06,24,00,48,14.30
2008,06,24,00,49,14.30
2008,06,24,00,50,14.30
2008,06,24,00,51,14.30
2008,06,24,00,52,14.30
2008,06,24,00,53,14.30
2008,06,24,00,54,14.30
2008,06,24,00,55,14.30
2008,06,24,00,56,14.30
2008,06,24,00,57,14.30
2008,06,24,00,58,14.30
2008,06,24,00,59,14.20
2008,06,24,01,00,14.20
2008,06,24,01,01,14.20
2008,06,24,01,02,14.20
2008,06,24,01,03,14.20
2008,06,24,01,04,14.20
2008,06,24,01,05,14.20
2008,06,24,01,06,14.20
2008,06,24,01,07,14.20
2008,06,24,01,08,14.20
2008,06,24,01,09,14.20
2008,06,24,01,10,14.20
2008,06,24,01,11,14.20
2008,06,24,01,12,14.20
2008,06,24,01,13,14.20
2008,06,24,01,14,14.20
2008,06,24,01,15,14.20
2008,06,24,01,16,14.20
2008,06,24,01,17,14.20
2008,06,24,01,18,14.20
2008,06,24,01,19,14.20
2008,06,24,01,20,14.20
2008,06,24,01,21,14.20
2008,06,24,01,22,14.20
2008,06,24,01,23,14.20
2008,06,24,01,24,14.20
2008,06,24,01,25,14.20
2008,06,24,01,26,14.20
2008,06,24,01,27,14.20
2008,06,24,01,28,14.20
2008,06,24,01,29,14.20
2008,06,24,01,30,14.20
2008,06,24,01,31,14.20
2008,06,24,01,32,14.20
2008,06,24,01,33,14.20
2008,06,24,01,34,14.20
2008,06,24,01,35,14.10
2008,06,24,01,36,14.10
2008,06,24,01,37,14.10
2008,06,24,01,38,14.10
2008,06,24,01,39,14.10
2008,06,24,01,40,14.10
2008,06,24,01,41,14.10
2008,06,24,01,42,14.10
2008,06,24,01,43,14.10
2008,06,24,01,44,14.00
2008,06,24,01,45,14.00
2008,06,24,01,46,14.00
2008,06,24,01,47,14.00
2008,06,24,01,48,14.00
2008,06,24,01,49,14.00
2008,06,24,01,50,14.00
2008,06,24,01,51,14.00
2008,06,24,01,52,14.10
2008,06,24,01,53,14.10
2008,06,24,01,54,14.00
2008,06,24,01,55,14.00
2008,06,24,01,56,14.00
2008,06,24,01,57,14.00
2008,06,24,01,58,14.00
2008,06,24,01,59,14.00
2008,06,24,02,00,14.00
2008,06,24,02,01,14.00
2008,06,24,02,02,13.90
2008,06,24,02,03,13.90
2008,06,24,02,04,13.90
2008,06,24,02,05,13.90
2008,06,24,02,06,13.90
2008,06,24,02,07,13.90
2008,06,24,02,08,13.90
2008,06,24,02,09,13.90
2008,06,24,02,10,13.90
2008,06,24,02,11,13.90
2008,06,24,02,12,13.90
2008,06,24,02,13,13.80
2008,06,24,02,14,13.80
2008,06,24,02,15,13.80
2008,06,24,02,16,13.80
2008,06,24,02,17,13.80
2008,06,24,02,18,13.80
2008,06,24,02,19,13.80
2008,06,24,02,20,13.80
2008,06,24,02,21,13.80
2008,06,24,02,22,13.80
2008,06,24,02,23,13.80
2008,06,24,02,24,13.80
2008,06,24,02,25,13.80
2008,06,24,02,26,13.80
2008,06,24,02,27,13.80
2008,06,24,02,28,13.80
2008,06,24,02,29,13.80
2008,06,24,02,30,13.80
2008,06,24,02,31,13.80
2008,06,24,02,32,13.80
2008,06,24,02,33,13.80
2008,06,24,02,34,13.80
2008,06,24,02,35,13.80
2008,06,24,02,36,13.80
2008,06,24,02,37,13.80
2008,06,24,02,38,13.80
2008,06,24,02,39,13.80
2008,06,24,02,40,13.80
2008,06,24,02,41,13.80
2008,06,24,02,42,13.80
2008,06,24,02,43,13.80
2008,06,24,02,44,13.80
2008,06,24,02,45,13.80
2008,06,24,02,46,13.80
2008,06,24,02,47,13.80
2008,06,24,02,48,13.80
2008,06,24,02,49,13.80
2008,06,24,02,50,13.80
2008,06,24,02,51,13.80
2008,06,24,02,52,13.80
2008,06,24,02,53,13.80
2008,06,24,02,54,13.80
2008,06,24,02,55,13.80
2008,06,24,02,56,13.80
2008,06,24,02,57,13.80
2008,06,24,02,58,13.80
2008,06,24,02,59,13.70
2008,06,24,03,00,13.70
2008,06,24,03,01,13.70
2008,06,24,03,02,13.70
2008,06,24,03,03,13.70
2008,06,24,03,04,13.70
2008,06,24,03,05,13.70
2008,06,24,03,06,13.70
2008,06,24,03,07,13.70
2008,06,24,03,08,13.80
2008,06,24,03,09,13.80
2008,06,24,03,10,13.80
2008,06,24,03,11,13.80
2008,06,24,03,12,13.80
2008,06,24,03,13,13.70
2008,06,24,03,14,13.70
2008,06,24,03,15,13.70
2008,06,24,03,16,13.70
2008,06,24,03,17,13.70
2008,06,24,03,18,13.70
2008,06,24,03,19,13.70
2008,06,24,03,20,13.70
2008,06,24,03,21,13.70
2008,06,24,03,22,13.70
2008,06,24,03,23,13.70
2008,06,24,03,24,13.60
2008,06,24,03,25,13.50
2008,06,24,03,26,13.30
2008,06,24,03,27,13.10
2008,06,24,03,28,13.00
2008,06,24,03,29,12.80
2008,06,24,03,30,12.70
2008,06,24,03,31,12.60
2008,06,24,03,32,12.50
2008,06,24,03,33,12.30
2008,06,24,03,34,12.30
2008,06,24,03,35,12.30
2008,06,24,03,36,12.20
2008,06,24,03,37,12.20
2008,06,24,03,38,12.20
2008,06,24,03,39,12.10
2008,06,24,03,40,12.10
2008,06,24,03,41,12.10
2008,06,24,03,42,12.00
2008,06,24,03,43,12.00
2008,06,24,03,44,12.00
2008,06,24,03,45,12.00
2008,06,24,03,46,12.00
2008,06,24,03,47,11.90
2008,06,24,03,48,11.90
2008,06,24,03,49,11.90
2008,06,24,03,50,11.90
2008,06,24,03,51,11.90
2008,06,24,03,52,11.90
2008,06,24,03,53,11.90
2008,06,24,03,54,11.90
2008,06,24,03,55,11.90
2008,06,24,03,56,11.90
2008,06,24,03,57,12.00
2008,06,24,03,58,12.00
2008,06,24,03,59,12.00
2008,06,24,04,00,12.00
2008,06,24,04,01,12.00
2008,06,24,04,02,12.00
2008,06,24,04,03,12.00
2008,06,24,04,04,12.00
2008,06,24,04,05,12.00
2008,06,24,04,06,11.90
2008,06,24,04,07,11.90
2008,06,24,04,08,11.90
2008,06,24,04,09,11.90
2008,06,24,04,10,11.90
2008,06,24,04,11,11.90
2008,06,24,04,12,11.90
2008,06,24,04,13,11.90
2008,06,24,04,14,11.90
2008,06,24,04,15,11.90
2008,06,24,04,16,11.90
2008,06,24,04,17,11.90
2008,06,24,04,18,11.90
2008,06,24,04,19,11.90
2008,06,24,04,20,11.90
2008,06,24,04,21,11.90
2008,06,24,04,22,11.90
2008,06,24,04,23,11.90
2008,06,24,04,24,11.90
2008,06,24,04,25,11.90
2008,06,24,04,26,11.90
2008,06,24,04,27,11.90
2008,06,24,04,28,11.90
2008,06,24,04,29,11.90
2008,06,24,04,30,11.90
2008,06,24,04,31,11.90
2008,06,24,04,32,11.90
2008,06,24,04,33,11.90
2008,06,24,04,34,11.90
2008,06,24,04,35,11.90
2008,06,24,04,36,11.90
2008,06,24,04,37,11.90
2008,06,24,04,38,11.90
2008,06,24,04,39,11.90
2008,06,24,04,40,11.80
2008,06,24,04,41,11.80
2008,06,24,04,42,11.80
2008,06,24,04,43,11.80
2008,06,24,04,44,11.80
2008,06,24,04,45,11.80
2008,06,24,04,46,11.80
2008,06,24,04,47,11.80
2008,06,24,04,48,11.80
2008,06,24,04,49,11.80
2008,06,24,04,50,11.70
2008,06,24,04,51,11.70
2008,06,24,04,52,11.70
2008,06,24,04,53,11.60
2008,06,24,04,54,11.60
2008,06,24,04,55,11.60
2008,06,24,04,56,11.60
2008,06,24,04,57,11.60
2008,06,24,04,58,11.60
2008,06,24,04,59,11.60
2008,06,24,05,00,11.40
2008,06,24,05,01,11.40
2008,06,24,05,02,11.40
2008,06,24,05,03,11.40
2008,06,24,05,04,11.40
2008,06,24,05,05,11.40
2008,06,24,05,06,11.40
2008,06,24,05,07,11.30
2008,06,24,05,08,11.30
2008,06,24,05,09,11.30
2008,06,24,05,10,11.30
2008,06,24,05,11,11.20
2008,06,24,05,12,11.20
2008,06,24,05,13,11.20
2008,06,24,05,14,11.20
2008,06,24,05,15,11.20
2008,06,24,05,16,11.10
2008,06,24,05,17,11.10
2008,06,24,05,18,11.10
2008,06,24,05,19,11.10
2008,06,24,05,20,11.10
2008,06,24,05,21,11.10
2008,06,24,05,22,11.10
2008,06,24,05,23,11.10
2008,06,24,05,24,11.10
2008,06,24,05,25,11.10
2008,06,24,05,26,11.10
2008,06,24,05,27,11.10
2008,06,24,05,28,11.10
2008,06,24,05,29,11.10
2008,06,24,05,30,11.10
2008,06,24,05,31,11.10
2008,06,24,05,32,11.10
2008,06,24,05,33,11.10
2008,06,24,05,34,11.10
2008,06,24,05,35,11.10
2008,06,24,05,36,11.10
2008,06,24,05,37,11.10
2008,06,24,05,38,11.10
2008,06,24,05,39,11.10
2008,06,24,05,40,11.10
2008,06,24,05,41,11.10
2008,06,24,05,42,11.10
2008,06,24,05,43,11.10
2008,06,24,05,44,11.10
2008,06,24,05,45,11.10
2008,06,24,05,46,11.10
2008,06,24,05,47,11.10
2008,06,24,05,48,11.10
2008,06,24,05,49,11.20
2008,06,24,05,50,11.20
2008,06,24,05,51,11.20
2008,06,24,05,52,11.20
2008,06,24,05,53,11.20
2008,06,24,05,54,11.20
2008,06,24,05,55,11.30
2008,06,24,05,56,11.30
2008,06,24,05,57,11.30
2008,06,24,05,58,11.30
2008,06,24,05,59,11.30
2008,06,24,06,00,11.30
2008,06,24,06,01,11.40
2008,06,24,06,02,11.40
2008,06,24,06,03,11.40
2008,06,24,06,04,11.40
2008,06,24,06,05,11.40
2008,06,24,06,06,11.40
2008,06,24,06,07,11.40
2008,06,24,06,08,11.40
2008,06,24,06,09,11.40
2008,06,24,06,10,11.40
2008,06,24,06,11,11.40
2008,06,24,06,12,11.40
2008,06,24,06,13,11.40
2008,06,24,06,14,11.40
2008,06,24,06,15,11.40
2008,06,24,06,16,11.40
2008,06,24,06,17,11.40
2008,06,24,06,18,11.40
2008,06,24,06,19,11.40
2008,06,24,06,20,11.40
2008,06,24,06,21,11.50
2008,06,24,06,22,11.60
2008,06,24,06,23,11.60
2008,06,24,06,24,11.60
2008,06,24,06,25,11.60
2008,06,24,06,26,11.60
2008,06,24,06,27,11.60
2008,06,24,06,28,11.60
2008,06,24,06,29,11.60
2008,06,24,06,30,11.60
2008,06,24,06,31,11.60
2008,06,24,06,32,11.60
2008,06,24,06,33,11.60
2008,06,24,06,34,11.60
2008,06,24,06,35,11.60
2008,06,24,06,36,11.60
2008,06,24,06,37,11.60
2008,06,24,06,38,11.60
2008,06,24,06,39,11.60
2008,06,24,06,40,11.60
2008,06,24,06,41,11.60
2008,06,24,06,42,11.60
2008,06,24,06,43,11.60
2008,06,24,06,44,11.60
2008,06,24,06,45,11.60
2008,06,24,06,46,11.60
2008,06,24,06,47,11.60
2008,06,24,06,48,11.60
2008,06,24,06,49,11.60
2008,06,24,06,50,11.60
2008,06,24,06,51,11.60
2008,06,24,06,52,11.60
2008,06,24,06,53,11.60
2008,06,24,06,54,11.60
2008,06,24,06,55,11.60
2008,06,24,06,56,11.60
2008,06,24,06,57,11.60
2008,06,24,06,58,11.70
2008,06,24,06,59,11.70
2008,06,24,07,00,11.70
2008,06,24,07,01,11.80
2008,06,24,07,02,11.80
2008,06,24,07,03,11.80
2008,06,24,07,04,11.70
2008,06,24,07,05,11.70
2008,06,24,07,06,11.70
2008,06,24,07,07,11.70
2008,06,24,07,08,11.70
2008,06,24,07,09,11.60
2008,06,24,07,10,11.60
2008,06,24,07,11,11.60
2008,06,24,07,12,11.60
2008,06,24,07,13,11.60
2008,06,24,07,14,11.60
2008,06,24,07,15,11.50
2008,06,24,07,16,11.40
2008,06,24,07,17,11.40
2008,06,24,07,18,11.40
2008,06,24,07,19,11.40
2008,06,24,07,20,11.40
2008,06,24,07,21,11.40
2008,06,24,07,22,11.40
2008,06,24,07,23,11.40
2008,06,24,07,24,11.40
2008,06,24,07,25,11.40
2008,06,24,07,26,11.40
2008,06,24,07,27,11.40
2008,06,24,07,28,11.40
2008,06,24,07,29,11.40
2008,06,24,07,30,11.40
2008,06,24,07,31,11.40
2008,06,24,07,32,11.40
2008,06,24,07,33,11.50
2008,06,24,07,34,11.60
2008,06,24,07,35,11.60
2008,06,24,07,36,11.60
2008,06,24,07,37,11.60
2008,06,24,07,38,11.70
2008,06,24,07,39,11.70
2008,06,24,07,40,11.80
2008,06,24,07,41,11.80
2008,06,24,07,42,11.80
2008,06,24,07,43,11.80
2008,06,24,07,44,11.80
2008,06,24,07,45,11.80
2008,06,24,07,46,11.80
2008,06,24,07,47,11.70
2008,06,24,07,48,11.70
2008,06,24,07,49,11.70
2008,06,24,07,50,11.70
2008,06,24,07,51,11.70
2008,06,24,07,52,11.70
2008,06,24,07,53,11.70
2008,06,24,07,54,11.60
2008,06,24,07,55,11.60
2008,06,24,07,56,11.60
2008,06,24,07,57,11.60
2008,06,24,07,58,11.60
2008,06,24,07,59,11.60
2008,06,24,08,00,11.60
2008,06,24,08,01,11.60
2008,06,24,08,02,11.60
2008,06,24,08,03,11.60
2008,06,24,08,04,11.60
2008,06,24,08,05,11.60
2008,06,24,08,06,11.60
2008,06,24,08,07,11.60
2008,06,24,08,08,11.70
2008,06,24,08,09,11.70
2008,06,24,08,10,11.80
2008,06,24,08,11,11.80
2008,06,24,08,12,11.80
2008,06,24,08,13,11.80
2008,06,24,08,14,11.80
2008,06,24,08,15,11.80
2008,06,24,08,16,11.80
2008,06,24,08,17,11.80
2008,06,24,08,18,11.80
2008,06,24,08,19,11.80
2008,06,24,08,20,11.80
2008,06,24,08,21,11.90
2008,06,24,08,22,11.90
2008,06,24,08,23,11.90
2008,06,24,08,24,12.00
2008,06,24,08,25,12.00
2008,06,24,08,26,12.10
2008,06,24,08,27,12.10
2008,06,24,08,28,12.20
2008,06,24,08,29,12.20
2008,06,24,08,30,12.20
2008,06,24,08,31,12.20
2008,06,24,08,32,12.20
2008,06,24,08,33,12.20
2008,06,24,08,34,12.30
2008,06,24,08,35,12.30
2008,06,24,08,36,12.30
2008,06,24,08,37,12.30
2008,06,24,08,38,12.30
2008,06,24,08,39,12.30
2008,06,24,08,40,12.30
2008,06,24,08,41,12.30
2008,06,24,08,42,12.40
2008,06,24,08,43,12.50
2008,06,24,08,44,12.60
2008,06,24,08,45,12.60
2008,06,24,08,46,12.70
2008,06,24,08,47,12.80
2008,06,24,08,48,13.00
2008,06,24,08,49,13.00
2008,06,24,08,50,13.10
2008,06,24,08,51,13.10
2008,06,24,08,52,13.10
2008,06,24,08,53,13.10
2008,06,24,08,54,13.10
2008,06,24,08,55,13.10
2008,06,24,08,56,13.20
2008,06,24,08,57,13.20
2008,06,24,08,58,13.30
2008,06,24,08,59,13.30
2008,06,24,09,00,13.30
2008,06,24,09,01,13.30
2008,06,24,09,02,13.30
2008,06,24,09,03,13.30
2008,06,24,09,04,13.30
2008,06,24,09,05,13.30
2008,06,24,09,06,13.30
2008,06,24,09,07,13.30
2008,06,24,09,08,13.40
2008,06,24,09,09,13.50
2008,06,24,09,10,13.50
2008,06,24,09,11,13.60
2008,06,24,09,12,13.70
2008,06,24,09,13,13.90
2008,06,24,09,14,13.90
2008,06,24,09,15,14.00
2008,06,24,09,16,13.90
2008,06,24,09,17,13.90
2008,06,24,09,18,13.80
2008,06,24,09,19,13.80
2008,06,24,09,20,13.90
2008,06,24,09,21,14.00
2008,06,24,09,22,14.00
2008,06,24,09,23,14.00
2008,06,24,09,24,14.00
2008,06,24,09,25,14.10
2008,06,24,09,26,14.20
2008,06,24,09,27,14.20
2008,06,24,09,28,14.20
2008,06,24,09,29,14.20
2008,06,24,09,30,14.20
2008,06,24,09,31,14.10
2008,06,24,09,32,14.10
2008,06,24,09,33,14.20
2008,06,24,09,34,14.20
2008,06,24,09,35,14.30
2008,06,24,09,36,14.30
2008,06,24,09,37,14.30
2008,06,24,09,38,14.30
2008,06,24,09,39,14.30
2008,06,24,09,40,14.40
2008,06,24,09,41,14.30
2008,06,24,09,42,14.30
2008,06,24,09,43,14.30
2008,06,24,09,44,14.20
2008,06,24,09,45,14.20
2008,06,24,09,46,14.30
2008,06,24,09,47,14.40
2008,06,24,09,48,14.40
2008,06,24,09,49,14.30
2008,06,24,09,50,14.20
2008,06,24,09,51,14.20
2008,06,24,09,52,14.30
2008,06,24,09,53,14.30
2008,06,24,09,54,14.30
2008,06,24,09,55,14.30
2008,06,24,09,56,14.20
2008,06,24,09,57,14.20
2008,06,24,09,58,14.20
2008,06,24,09,59,14.20
2008,06,24,10,00,14.40
2008,06,24,10,01,14.40
2008,06,24,10,02,14.40
2008,06,24,10,03,14.40
2008,06,24,10,04,14.50
2008,06,24,10,05,14.50
2008,06,24,10,06,14.60
2008,06,24,10,07,14.60
2008,06,24,10,08,14.70
2008,06,24,10,09,14.70
2008,06,24,10,10,14.70
2008,06,24,10,11,14.80
2008,06,24,10,12,14.80
2008,06,24,10,13,14.80
2008,06,24,10,14,14.80
2008,06,24,10,15,14.80
2008,06,24,10,16,14.90
2008,06,24,10,17,14.90
2008,06,24,10,18,15.00
2008,06,24,10,19,15.00
2008,06,24,10,20,15.10
2008,06,24,10,21,15.00
2008,06,24,10,22,15.10
2008,06,24,10,23,15.00
2008,06,24,10,24,15.10
2008,06,24,10,25,15.10
2008,06,24,10,26,15.20
2008,06,24,10,27,15.30
2008,06,24,10,28,15.30
2008,06,24,10,29,15.30
2008,06,24,10,30,15.30
2008,06,24,10,31,15.40
2008,06,24,10,32,15.50
2008,06,24,10,33,15.50
2008,06,24,10,34,15.50
2008,06,24,10,35,15.50
2008,06,24,10,36,15.40
2008,06,24,10,37,15.40
2008,06,24,10,38,15.50
2008,06,24,10,39,15.50
2008,06,24,10,40,15.50
2008,06,24,10,41,15.50
2008,06,24,10,42,15.40
2008,06,24,10,43,15.40
2008,06,24,10,44,15.50
2008,06,24,10,45,15.50
2008,06,24,10,46,15.60
2008,06,24,10,47,15.60
2008,06,24,10,48,15.60
2008,06,24,10,49,15.60
2008,06,24,10,50,15.50
2008,06,24,10,51,15.50
2008,06,24,10,52,15.50
2008,06,24,10,53,15.50
2008,06,24,10,54,15.50
2008,06,24,10,55,15.40
2008,06,24,10,56,15.40
2008,06,24,10,57,15.30
2008,06,24,10,58,15.30
2008,06,24,10,59,15.20
2008,06,24,11,00,15.20
2008,06,24,11,01,15.30
2008,06,24,11,02,15.40
2008,06,24,11,03,15.50
2008,06,24,11,04,15.40
2008,06,24,11,05,15.40
2008,06,24,11,06,15.40
2008,06,24,11,07,15.40
2008,06,24,11,08,15.50
2008,06,24,11,09,15.50
2008,06,24,11,10,15.60
2008,06,24,11,11,15.70
2008,06,24,11,12,15.80
2008,06,24,11,13,15.80
2008,06,24,11,14,15.70
2008,06,24,11,15,15.60
2008,06,24,11,16,15.50
2008,06,24,11,17,15.40
2008,06,24,11,18,15.50
2008,06,24,11,19,15.60
2008,06,24,11,20,15.60
2008,06,24,11,21,15.60
2008,06,24,11,22,15.60
2008,06,24,11,23,15.60
2008,06,24,11,24,15.50
2008,06,24,11,25,15.50
2008,06,24,11,26,15.60
2008,06,24,11,27,15.70
2008,06,24,11,28,15.70
2008,06,24,11,29,15.70
2008,06,24,11,30,15.70
2008,06,24,11,31,15.70
2008,06,24,11,32,15.70
2008,06,24,11,33,15.80
2008,06,24,11,34,15.80
2008,06,24,11,35,15.90
2008,06,24,11,36,15.80
2008,06,24,11,37,15.90
2008,06,24,11,38,15.80
2008,06,24,11,39,15.80
2008,06,24,11,40,15.70
2008,06,24,11,41,15.80
2008,06,24,11,42,15.80
2008,06,24,11,43,15.90
2008,06,24,11,44,16.10
2008,06,24,11,45,16.10
2008,06,24,11,46,16.20
2008,06,24,11,47,16.10
2008,06,24,11,48,16.10
2008,06,24,11,49,16.10
2008,06,24,11,50,16.10
2008,06,24,11,51,16.10
2008,06,24,11,52,16.10
2008,06,24,11,53,16.10
2008,06,24,11,54,16.20
2008,06,24,11,55,16.20
2008,06,24,11,56,16.30
2008,06,24,11,57,16.30
2008,06,24,11,58,16.30
2008,06,24,11,59,16.20
2008,06,24,12,00,16.10
2008,06,24,12,01,16.00
2008,06,24,12,02,15.90
2008,06,24,12,03,15.90
2008,06,24,12,04,16.00
2008,06,24,12,05,16.10
2008,06,24,12,06,16.10
2008,06,24,12,07,16.00
2008,06,24,12,08,15.90
2008,06,24,12,09,15.90
2008,06,24,12,10,15.80
2008,06,24,12,11,15.90
2008,06,24,12,12,16.00
2008,06,24,12,13,16.10
2008,06,24,12,14,16.10
2008,06,24,12,15,16.00
2008,06,24,12,16,15.80
2008,06,24,12,17,15.70
2008,06,24,12,18,15.60
2008,06,24,12,19,15.50
2008,06,24,12,20,15.40
2008,06,24,12,21,15.40
2008,06,24,12,22,15.50
2008,06,24,12,23,15.60
2008,06,24,12,24,15.70
2008,06,24,12,25,15.80
2008,06,24,12,26,15.80
2008,06,24,12,27,15.80
2008,06,24,12,28,15.90
2008,06,24,12,29,15.90
2008,06,24,12,30,15.90
2008,06,24,12,31,15.90
2008,06,24,12,32,16.00
2008,06,24,12,33,16.10
2008,06,24,12,34,16.10
2008,06,24,12,35,16.20
2008,06,24,12,36,16.30
2008,06,24,12,37,16.30
2008,06,24,12,38,16.20
2008,06,24,12,39,16.10
2008,06,24,12,40,16.10
2008,06,24,12,41,16.10
2008,06,24,12,42,16.10
2008,06,24,12,43,16.10
2008,06,24,12,44,16.30
2008,06,24,12,45,16.40
2008,06,24,12,46,16.40
2008,06,24,12,47,16.50
2008,06,24,12,48,16.60
2008,06,24,12,49,16.60
2008,06,24,12,50,16.70
2008,06,24,12,51,16.80
2008,06,24,12,52,16.70
2008,06,24,12,53,16.70
2008,06,24,12,54,16.80
2008,06,24,12,55,16.90
2008,06,24,12,56,16.90
2008,06,24,12,57,16.80
2008,06,24,12,58,16.90
2008,06,24,12,59,17.00
2008,06,24,13,00,17.10
2008,06,24,13,01,17.10
2008,06,24,13,02,17.10
2008,06,24,13,03,17.20
2008,06,24,13,04,17.20
2008,06,24,13,05,17.30
2008,06,24,13,06,17.20
2008,06,24,13,07,17.00
2008,06,24,13,08,16.90
2008,06,24,13,09,16.90
2008,06,24,13,10,16.90
2008,06,24,13,11,16.70
2008,06,24,13,12,16.60
2008,06,24,13,13,16.40
2008,06,24,13,14,16.40
2008,06,24,13,15,16.40
2008,06,24,13,16,16.40
2008,06,24,13,17,16.40
2008,06,24,13,18,16.40
2008,06,24,13,19,16.40
2008,06,24,13,20,16.60
2008,06,24,13,21,16.80
2008,06,24,13,22,16.80
2008,06,24,13,23,16.90
2008,06,24,13,24,16.90
2008,06,24,13,25,17.00
2008,06,24,13,26,17.10
2008,06,24,13,27,17.20
2008,06,24,13,28,17.20
2008,06,24,13,29,17.10
2008,06,24,13,30,17.00
2008,06,24,13,31,17.00
2008,06,24,13,32,17.00
2008,06,24,13,33,17.00
2008,06,24,13,34,17.00
2008,06,24,13,35,17.10
2008,06,24,13,36,17.20
2008,06,24,13,37,17.30
2008,06,24,13,38,17.50
2008,06,24,13,39,17.50
2008,06,24,13,40,17.70
2008,06,24,13,41,17.60
2008,06,24,13,42,17.40
2008,06,24,13,43,17.30
2008,06,24,13,44,17.30
2008,06,24,13,45,17.20
2008,06,24,13,46,17.20
2008,06,24,13,47,17.20
2008,06,24,13,48,17.20
2008,06,24,13,49,17.30
2008,06,24,13,50,17.30
2008,06,24,13,51,17.30
2008,06,24,13,52,17.30
2008,06,24,13,53,17.20
2008,06,24,13,54,17.10
2008,06,24,13,55,17.10
2008,06,24,13,56,17.10
2008,06,24,13,57,17.00
2008,06,24,13,58,17.00
2008,06,24,13,59,17.00
2008,06,24,14,00,17.00
2008,06,24,14,01,17.10
2008,06,24,14,02,17.20
2008,06,24,14,03,17.20
2008,06,24,14,04,17.20
2008,06,24,14,05,17.20
2008,06,24,14,06,17.10
2008,06,24,14,07,17.10
2008,06,24,14,08,17.20
2008,06,24,14,09,17.20
2008,06,24,14,10,17.30
2008,06,24,14,11,17.40
2008,06,24,14,12,17.40
2008,06,24,14,13,17.40
2008,06,24,14,14,17.30
2008,06,24,14,15,17.30
2008,06,24,14,16,17.40
2008,06,24,14,17,17.50
2008,06,24,14,18,17.50
2008,06,24,14,19,17.60
2008,06,24,14,20,17.50
2008,06,24,14,21,17.50
2008,06,24,14,22,17.40
2008,06,24,14,23,17.50
2008,06,24,14,24,17.60
2008,06,24,14,25,17.70
2008,06,24,14,26,17.70
2008,06,24,14,27,17.60
2008,06,24,14,28,17.50
2008,06,24,14,29,17.40
2008,06,24,14,30,17.40
2008,06,24,14,31,17.40
2008,06,24,14,32,17.40
2008,06,24,14,33,17.50
2008,06,24,14,34,17.50
2008,06,24,14,35,17.60
2008,06,24,14,36,17.70
2008,06,24,14,37,17.80
2008,06,24,14,38,17.90
2008,06,24,14,39,18.10
2008,06,24,14,40,18.20
2008,06,24,14,41,18.20
2008,06,24,14,42,18.30
2008,06,24,14,43,18.40
2008,06,24,14,44,18.40
2008,06,24,14,45,18.40
2008,06,24,14,46,18.40
2008,06,24,14,47,18.30
2008,06,24,14,48,18.30
2008,06,24,14,49,18.30
2008,06,24,14,50,18.20
2008,06,24,14,51,18.20
2008,06,24,14,52,18.30
2008,06,24,14,53,18.20
2008,06,24,14,54,18.30
2008,06,24,14,55,18.30
2008,06,24,14,56,18.40
2008,06,24,14,57,18.50
2008,06,24,14,58,18.60
2008,06,24,14,59,18.70
2008,06,24,15,00,18.70
2008,06,24,15,01,18.70
2008,06,24,15,02,18.70
2008,06,24,15,03,18.60
2008,06,24,15,04,18.60
2008,06,24,15,05,18.60
2008,06,24,15,06,18.60
2008,06,24,15,07,18.60
2008,06,24,15,08,18.60
2008,06,24,15,09,18.60
2008,06,24,15,10,18.60
2008,06,24,15,11,18.70
2008,06,24,15,12,18.70
2008,06,24,15,13,18.80
2008,06,24,15,14,18.80
2008,06,24,15,15,18.70
2008,06,24,15,16,18.70
2008,06,24,15,17,18.70
2008,06,24,15,18,18.70
2008,06,24,15,19,18.80
2008,06,24,15,20,19.00
2008,06,24,15,21,19.10
2008,06,24,15,22,19.00
2008,06,24,15,23,18.90
2008,06,24,15,24,18.80
2008,06,24,15,25,18.90
2008,06,24,15,26,18.90
2008,06,24,15,27,18.90
2008,06,24,15,28,18.80
2008,06,24,15,29,18.80
2008,06,24,15,30,18.90
2008,06,24,15,31,18.90
2008,06,24,15,32,18.90
2008,06,24,15,33,18.90
2008,06,24,15,34,18.90
2008,06,24,15,35,18.90
2008,06,24,15,36,18.90
2008,06,24,15,37,18.90
2008,06,24,15,38,19.00
2008,06,24,15,39,19.10
2008,06,24,15,40,19.10
2008,06,24,15,41,19.20
2008,06,24,15,42,19.20
2008,06,24,15,43,19.20
2008,06,24,15,44,19.00
2008,06,24,15,45,18.90
2008,06,24,15,46,18.90
2008,06,24,15,47,18.90
2008,06,24,15,48,19.00
2008,06,24,15,49,19.10
2008,06,24,15,50,19.00
2008,06,24,15,51,18.90
2008,06,24,15,52,18.90
2008,06,24,15,53,18.80
2008,06,24,15,54,18.70
2008,06,24,15,55,18.60
2008,06,24,15,56,18.50
2008,06,24,15,57,18.50
2008,06,24,15,58,18.60
2008,06,24,15,59,18.70
2008,06,24,16,00,18.90
2008,06,24,16,01,19.00
2008,06,24,16,02,19.10
2008,06,24,16,03,19.20
2008,06,24,16,04,19.20
2008,06,24,16,05,19.20
2008,06,24,16,06,19.40
2008,06,24,16,07,19.30
2008,06,24,16,08,19.20
2008,06,24,16,09,19.10
2008,06,24,16,10,19.10
2008,06,24,16,11,19.00
2008,06,24,16,12,18.90
2008,06,24,16,13,18.90
2008,06,24,16,14,18.90
2008,06,24,16,15,18.90
2008,06,24,16,16,18.90
2008,06,24,16,17,18.90
2008,06,24,16,18,18.90
2008,06,24,16,19,18.90
2008,06,24,16,20,18.90
2008,06,24,16,21,19.00
2008,06,24,16,22,19.10
2008,06,24,16,23,19.20
2008,06,24,16,24,19.30
2008,06,24,16,25,19.30
2008,06,24,16,26,19.40
2008,06,24,16,27,19.20
2008,06,24,16,28,19.20
2008,06,24,16,29,19.10
2008,06,24,16,30,19.10
2008,06,24,16,31,19.10
2008,06,24,16,32,18.90
2008,06,24,16,33,18.80
2008,06,24,16,34,18.70
2008,06,24,16,35,18.70
2008,06,24,16,36,18.60
2008,06,24,16,37,18.50
2008,06,24,16,38,18.50
2008,06,24,16,39,18.50
2008,06,24,16,40,18.40
2008,06,24,16,41,18.50
2008,06,24,16,42,18.50
2008,06,24,16,43,18.60
2008,06,24,16,44,18.70
2008,06,24,16,45,18.70
2008,06,24,16,46,18.70
2008,06,24,16,47,18.80
2008,06,24,16,48,18.70
2008,06,24,16,49,18.60
2008,06,24,16,50,18.60
2008,06,24,16,51,18.50
2008,06,24,16,52,18.60
2008,06,24,16,53,18.70
2008,06,24,16,54,18.70
2008,06,24,16,55,18.90
2008,06,24,16,56,19.00
2008,06,24,16,57,19.10
2008,06,24,16,58,19.10
2008,06,24,16,59,18.90
2008,06,24,17,00,18.90
2008,06,24,17,01,18.90
2008,06,24,17,02,19.10
2008,06,24,17,03,19.10
2008,06,24,17,04,18.90
2008,06,24,17,05,18.90
2008,06,24,17,06,18.90
2008,06,24,17,07,18.90
2008,06,24,17,08,19.00
2008,06,24,17,09,18.90
2008,06,24,17,10,19.00
2008,06,24,17,11,19.10
2008,06,24,17,12,19.10
2008,06,24,17,13,18.90
2008,06,24,17,14,18.90
2008,06,24,17,15,18.90
2008,06,24,17,16,18.90
2008,06,24,17,17,18.90
2008,06,24,17,18,18.90
2008,06,24,17,19,18.90